Tracking 28518 objects as of 2-Mar-2024
HD Live streaming from Space Station
objects crossing your sky now

STARLINK-5540

Track STARLINK-5540 now!
10-day predictions
STARLINK-5540 is classified as:


NORAD ID: 56340
Int'l Code: 2023-058Z
Perigee: 567.5 km
Apogee: 572.8 km
Inclination: 97.7 °
Period: 95.9 minutes
Semi major axis: 6941 km
RCS: Unknown
Launch date: April 27, 2023
Source: United States (US)
Launch site: AIR FORCE WESTERN TEST RANGE (AFWTR)
Your satellite tracking list
Your tracking list is empty




NASA's NSSDC Master Catalog

Two Line Element Set (TLE):
1 56340U 23058Z   24061.60574161  .00000128  00000-0  14557-4 0  9996
2 56340  97.6563  63.9800 0003824  51.3739 308.7827 15.01259799 47393
Source of the keplerian elements: AFSPC